Time,TemperatureF,DewpointF,PressureIn,WindDirection,WindDirectionDegrees,WindSpeedMPH,WindSpeedGustMPH,Humidity,HourlyPrecipIn,Conditions,Clouds,dailyrainin,SoftwareType,DateUTC
2013-01-23 00:00:00,14.0,-0.8,29.35,NE,45,0.0,9.0,51,0.00,,,0.00,Weather View 32 v70,2013-01-23 05:00:00,
2013-01-23 00:10:00,14.0,-0.8,29.35,WNW,292,0.0,9.0,51,0.00,,,0.00,Weather View 32 v70,2013-01-23 05:10:00,
2013-01-23 00:15:00,14.0,-0.4,29.35,North,360,0.0,9.0,52,0.00,,,0.00,Weather View 32 v70,2013-01-23 05:15:00,
2013-01-23 00:22:00,14.0,0.0,29.35,NW,315,0.0,9.0,53,0.00,,,0.00,Weather View 32 v70,2013-01-23 05:22:00,
2013-01-23 00:28:00,14.0,0.0,29.35,North,360,2.0,9.0,53,0.00,,,0.00,Weather View 32 v70,2013-01-23 05:28:00,
2013-01-23 00:33:00,13.0,-0.5,29.35,North,360,0.0,9.0,54,0.00,,,0.00,Weather View 32 v70,2013-01-23 05:33:00,
2013-01-23 00:38:00,13.0,-0.1,29.34,North,360,1.0,9.0,55,0.00,,,0.00,Weather View 32 v70,2013-01-23 05:38:00,
2013-01-23 00:43:00,13.0,-0.1,29.35,NNW,337,0.0,9.0,55,0.00,,,0.00,Weather View 32 v70,2013-01-23 05:43:00,
2013-01-23 00:48:00,13.0,-0.1,29.35,NNE,22,0.0,9.0,55,0.00,,,0.00,Weather View 32 v70,2013-01-23 05:48:00,
2013-01-23 00:53:00,13.0,0.3,29.35,NNE,22,0.0,9.0,56,0.00,,,0.00,Weather View 32 v70,2013-01-23 05:53:00,
2013-01-23 00:58:00,13.0,0.3,29.34,North,360,0.0,9.0,56,0.00,,,0.00,Weather View 32 v70,2013-01-23 05:58:00,
2013-01-23 01:03:00,14.0,1.2,29.35,North,360,0.0,7.0,56,0.00,,,0.00,Weather View 32 v70,2013-01-23 06:03:00,
2013-01-23 01:08:00,14.0,1.2,29.35,North,360,0.0,7.0,56,0.00,,,0.00,Weather View 32 v70,2013-01-23 06:08:00,
2013-01-23 01:13:00,14.0,0.8,29.35,NW,315,0.0,7.0,55,0.00,,,0.00,Weather View 32 v70,2013-01-23 06:13:00,
2013-01-23 01:18:00,14.0,0.8,29.35,NNW,337,0.0,7.0,55,0.00,,,0.00,Weather View 32 v70,2013-01-23 06:18:00,
2013-01-23 01:23:00,14.0,0.8,29.35,NNW,337,0.0,7.0,55,0.00,,,0.00,Weather View 32 v70,2013-01-23 06:23:00,
2013-01-23 01:28:00,14.0,1.2,29.35,NNW,337,0.0,7.0,56,0.00,,,0.00,Weather View 32 v70,2013-01-23 06:28:00,
2013-01-23 01:33:00,13.0,0.3,29.35,NNW,337,0.0,7.0,56,0.00,,,0.00,Weather View 32 v70,2013-01-23 06:33:00,
2013-01-23 01:38:00,13.0,0.3,29.35,NNW,337,0.0,7.0,56,0.00,,,0.00,Weather View 32 v70,2013-01-23 06:38:00,
2013-01-23 01:43:00,13.0,0.6,29.35,NNW,337,0.0,7.0,57,0.00,,,0.00,Weather View 32 v70,2013-01-23 06:43:00,
2013-01-23 01:48:00,13.0,0.6,29.35,NW,315,0.0,7.0,57,0.00,,,0.00,Weather View 32 v70,2013-01-23 06:48:00,
2013-01-23 01:53:00,13.0,1.0,29.35,NNW,337,0.0,7.0,58,0.00,,,0.00,Weather View 32 v70,2013-01-23 06:53:00,
2013-01-23 01:58:00,13.0,1.0,29.35,NW,315,0.0,7.0,58,0.00,,,0.00,Weather View 32 v70,2013-01-23 06:58:00,
2013-01-23 02:03:00,13.0,1.0,29.35,NW,315,0.0,5.0,58,0.00,,,0.00,Weather View 32 v70,2013-01-23 07:03:00,
2013-01-23 02:08:00,13.0,1.0,29.35,NW,315,0.0,9.0,58,0.00,,,0.00,Weather View 32 v70,2013-01-23 07:08:00,
2013-01-23 02:13:00,13.0,1.0,29.35,NNW,337,1.0,9.0,58,0.00,,,0.00,Weather View 32 v70,2013-01-23 07:13:00,
2013-01-23 02:18:00,13.0,1.0,29.35,North,360,0.0,9.0,58,0.00,,,0.00,Weather View 32 v70,2013-01-23 07:18:00,
2013-01-23 02:23:00,13.0,1.0,29.35,NNW,337,0.0,9.0,58,0.00,,,0.00,Weather View 32 v70,2013-01-23 07:23:00,
2013-01-23 02:28:00,13.0,1.0,29.35,North,360,1.0,9.0,58,0.00,,,0.00,Weather View 32 v70,2013-01-23 07:28:00,
2013-01-23 02:33:00,13.0,1.0,29.36,NW,315,0.0,9.0,58,0.00,,,0.00,Weather View 32 v70,2013-01-23 07:33:00,
2013-01-23 02:38:00,13.0,1.0,29.36,NNE,22,0.0,9.0,58,0.00,,,0.00,Weather View 32 v70,2013-01-23 07:38:00,
2013-01-23 02:43:00,13.0,1.4,29.36,North,360,0.0,9.0,59,0.00,,,0.00,Weather View 32 v70,2013-01-23 07:43:00,
2013-01-23 02:48:00,13.0,1.0,29.36,North,360,0.0,9.0,58,0.00,,,0.00,Weather View 32 v70,2013-01-23 07:48:00,
2013-01-23 02:53:00,13.0,1.0,29.36,North,360,0.0,9.0,58,0.00,,,0.00,Weather View 32 v70,2013-01-23 07:53:00,
2013-01-23 02:58:00,13.0,1.0,29.36,North,360,0.0,9.0,58,0.00,,,0.00,Weather View 32 v70,2013-01-23 07:58:00,
2013-01-23 03:03:00,13.0,1.4,29.36,North,360,0.0,9.0,59,0.00,,,0.00,Weather View 32 v70,2013-01-23 08:03:00,
2013-01-23 03:08:00,13.0,1.4,29.35,NNW,337,0.0,8.0,59,0.00,,,0.00,Weather View 32 v70,2013-01-23 08:08:00,
2013-01-23 03:13:00,13.0,1.4,29.35,NNW,337,0.0,8.0,59,0.00,,,0.00,Weather View 32 v70,2013-01-23 08:13:00,
2013-01-23 03:18:00,13.0,1.4,29.35,NE,45,0.0,8.0,59,0.00,,,0.00,Weather View 32 v70,2013-01-23 08:18:00,
2013-01-23 03:23:00,13.0,1.7,29.35,NNW,337,0.0,8.0,60,0.00,,,0.00,Weather View 32 v70,2013-01-23 08:23:00,
2013-01-23 03:28:00,12.0,1.1,29.35,NNW,337,0.0,8.0,61,0.00,,,0.00,Weather View 32 v70,2013-01-23 08:28:00,
2013-01-23 03:33:00,12.0,1.5,29.35,North,360,0.0,8.0,62,0.00,,,0.00,Weather View 32 v70,2013-01-23 08:33:00,
2013-01-23 03:38:00,12.0,1.5,29.35,North,360,0.0,8.0,62,0.00,,,0.00,Weather View 32 v70,2013-01-23 08:38:00,
2013-01-23 03:43:00,12.0,1.8,29.35,North,360,0.0,4.0,63,0.00,,,0.00,Weather View 32 v70,2013-01-23 08:43:00,
2013-01-23 03:48:00,12.0,1.8,29.35,NNW,337,0.0,2.0,63,0.00,,,0.00,Weather View 32 v70,2013-01-23 08:48:00,
2013-01-23 03:53:00,12.0,1.8,29.35,NNW,337,0.0,2.0,63,0.00,,,0.00,Weather View 32 v70,2013-01-23 08:53:00,
2013-01-23 03:58:00,12.0,1.8,29.35,NNW,337,0.0,2.0,63,0.00,,,0.00,Weather View 32 v70,2013-01-23 08:58:00,
2013-01-23 04:03:00,12.0,2.2,29.34,NNW,337,0.0,2.0,64,0.00,,,0.00,Weather View 32 v70,2013-01-23 09:03:00,
2013-01-23 04:08:00,12.0,2.5,29.35,NNW,337,0.0,2.0,65,0.00,,,0.00,Weather View 32 v70,2013-01-23 09:08:00,
2013-01-23 04:13:00,12.0,2.5,29.35,NNW,337,0.0,2.0,65,0.00,,,0.00,Weather View 32 v70,2013-01-23 09:13:00,
2013-01-23 04:18:00,12.0,2.5,29.35,NNW,337,0.0,1.0,65,0.00,,,0.00,Weather View 32 v70,2013-01-23 09:18:00,
2013-01-23 04:23:00,12.0,2.5,29.35,NNW,337,0.0,1.0,65,0.00,,,0.00,Weather View 32 v70,2013-01-23 09:23:00,
2013-01-23 04:28:00,12.0,2.5,29.35,NNW,337,0.0,1.0,65,0.00,,,0.00,Weather View 32 v70,2013-01-23 09:28:00,
2013-01-23 04:33:00,12.0,2.5,29.35,NNW,337,0.0,1.0,65,0.00,,,0.00,Weather View 32 v70,2013-01-23 09:33:00,
2013-01-23 04:38:00,12.0,2.5,29.35,NNW,337,0.0,1.0,65,0.00,,,0.00,Weather View 32 v70,2013-01-23 09:38:00,
2013-01-23 04:43:00,12.0,2.8,29.35,NNW,337,0.0,1.0,66,0.00,,,0.00,Weather View 32 v70,2013-01-23 09:43:00,
2013-01-23 04:48:00,11.0,2.2,29.35,NNW,337,0.0,1.0,67,0.00,,,0.00,Weather View 32 v70,2013-01-23 09:48:00,
2013-01-23 04:53:00,11.0,2.2,29.35,NNW,337,0.0,1.0,67,0.00,,,0.00,Weather View 32 v70,2013-01-23 09:53:00,
2013-01-23 04:58:00,11.0,1.9,29.35,NNW,337,0.0,1.0,66,0.00,,,0.00,Weather View 32 v70,2013-01-23 09:58:00,
2013-01-23 05:03:00,12.0,3.2,29.35,NNW,337,0.0,1.0,67,0.00,,,0.00,Weather View 32 v70,2013-01-23 10:03:00,
2013-01-23 05:08:00,12.0,3.2,29.35,NNW,337,0.0,1.0,67,0.00,,,0.00,Weather View 32 v70,2013-01-23 10:08:00,
2013-01-23 05:13:00,11.0,2.8,29.35,NNW,337,0.0,1.0,69,0.00,,,0.00,Weather View 32 v70,2013-01-23 10:13:00,
2013-01-23 05:18:00,12.0,3.2,29.35,NNW,337,0.0,1.0,67,0.00,,,0.00,Weather View 32 v70,2013-01-23 10:18:00,
2013-01-23 05:23:00,11.0,2.5,29.35,NNW,337,0.0,1.0,68,0.00,,,0.00,Weather View 32 v70,2013-01-23 10:23:00,
2013-01-23 05:28:00,12.0,3.2,29.35,NNW,337,0.0,1.0,67,0.00,,,0.00,Weather View 32 v70,2013-01-23 10:28:00,
2013-01-23 05:33:00,12.0,3.2,29.35,NNW,337,0.0,1.0,67,0.00,,,0.00,Weather View 32 v70,2013-01-23 10:33:00,
2013-01-23 05:38:00,12.0,3.2,29.35,NNW,337,0.0,1.0,67,0.00,,,0.00,Weather View 32 v70,2013-01-23 10:38:00,
2013-01-23 05:43:00,12.0,3.2,29.35,WNW,292,0.0,1.0,67,0.00,,,0.00,Weather View 32 v70,2013-01-23 10:43:00,
2013-01-23 05:48:00,12.0,3.2,29.35,WNW,292,0.0,1.0,67,0.00,,,0.00,Weather View 32 v70,2013-01-23 10:48:00,
2013-01-23 05:53:00,11.0,2.8,29.35,WNW,292,0.0,1.0,69,0.00,,,0.00,Weather View 32 v70,2013-01-23 10:53:00,
2013-01-23 05:58:00,11.0,2.8,29.35,WNW,292,0.0,1.0,69,0.00,,,0.00,Weather View 32 v70,2013-01-23 10:58:00,
2013-01-23 06:03:00,11.0,3.1,29.35,WNW,292,0.0,1.0,70,0.00,,,0.00,Weather View 32 v70,2013-01-23 11:03:00,
2013-01-23 06:08:00,11.0,3.4,29.35,WNW,292,0.0,1.0,71,0.00,,,0.00,Weather View 32 v70,2013-01-23 11:08:00,
2013-01-23 06:13:00,11.0,3.1,29.35,WNW,292,0.0,1.0,70,0.00,,,0.00,Weather View 32 v70,2013-01-23 11:13:00,
2013-01-23 06:18:00,11.0,3.1,29.35,WNW,292,0.0,1.0,70,0.00,,,0.00,Weather View 32 v70,2013-01-23 11:18:00,
2013-01-23 06:23:00,11.0,3.1,29.35,WNW,292,0.0,1.0,70,0.00,,,0.00,Weather View 32 v70,2013-01-23 11:23:00,
2013-01-23 06:28:00,11.0,3.4,29.35,WNW,292,0.0,1.0,71,0.00,,,0.00,Weather View 32 v70,2013-01-23 11:28:00,
2013-01-23 06:33:00,11.0,3.4,29.35,WNW,292,0.0,1.0,71,0.00,,,0.00,Weather View 32 v70,2013-01-23 11:33:00,
2013-01-23 06:38:00,11.0,3.8,29.35,WNW,292,0.0,1.0,72,0.00,,,0.00,Weather View 32 v70,2013-01-23 11:38:00,
2013-01-23 06:43:00,11.0,3.8,29.35,WNW,292,0.0,1.0,72,0.00,,,0.00,Weather View 32 v70,2013-01-23 11:43:00,
2013-01-23 06:48:00,11.0,4.1,29.36,WNW,292,0.0,1.0,73,0.00,,,0.00,Weather View 32 v70,2013-01-23 11:48:00,
2013-01-23 06:53:00,11.0,4.3,29.35,WNW,292,0.0,1.0,74,0.00,,,0.00,Weather View 32 v70,2013-01-23 11:53:00,
2013-01-23 07:00:00,11.0,4.6,29.36,WNW,292,0.0,1.0,75,0.00,,,0.00,Weather View 32 v70,2013-01-23 12:00:00,
2013-01-23 07:05:00,11.0,4.6,29.36,WNW,292,0.0,1.0,75,0.00,,,0.00,Weather View 32 v70,2013-01-23 12:05:00,
2013-01-23 07:10:00,11.0,4.6,29.36,WNW,292,0.0,0.0,75,0.00,,,0.00,Weather View 32 v70,2013-01-23 12:10:00,
2013-01-23 07:15:00,11.0,4.9,29.36,WNW,292,0.0,0.0,76,0.00,,,0.00,Weather View 32 v70,2013-01-23 12:15:00,
2013-01-23 07:20:00,11.0,5.2,29.37,WNW,292,0.0,0.0,77,0.00,,,0.00,Weather View 32 v70,2013-01-23 12:20:00,
2013-01-23 07:25:00,11.0,5.2,29.37,WNW,292,0.0,0.0,77,0.00,,,0.00,Weather View 32 v70,2013-01-23 12:25:00,
2013-01-23 07:30:00,11.0,5.2,29.37,West,270,0.0,1.0,77,0.00,,,0.00,Weather View 32 v70,2013-01-23 12:30:00,
2013-01-23 07:35:00,11.0,4.9,29.37,West,270,0.0,1.0,76,0.00,,,0.00,Weather View 32 v70,2013-01-23 12:35:00,
2013-01-23 07:40:00,11.0,4.9,29.37,West,270,0.0,1.0,76,0.00,,,0.00,Weather View 32 v70,2013-01-23 12:40:00,
2013-01-23 07:45:00,11.0,4.6,29.37,West,270,0.0,1.0,75,0.00,,,0.00,Weather View 32 v70,2013-01-23 12:45:00,
2013-01-23 07:50:00,11.0,4.6,29.37,WNW,292,0.0,2.0,75,0.00,,,0.00,Weather View 32 v70,2013-01-23 12:50:00,
2013-01-23 07:55:00,12.0,5.0,29.37,WNW,292,0.0,2.0,73,0.00,,,0.00,Weather View 32 v70,2013-01-23 12:55:00,
2013-01-23 08:00:00,12.0,4.7,29.37,NNW,337,0.0,2.0,72,0.00,,,0.00,Weather View 32 v70,2013-01-23 13:00:00,
2013-01-23 08:05:00,12.0,4.4,29.38,NW,315,0.0,2.0,71,0.00,,,0.00,Weather View 32 v70,2013-01-23 13:05:00,
2013-01-23 08:10:00,12.0,4.1,29.38,NNW,337,0.0,2.0,70,0.00,,,0.00,Weather View 32 v70,2013-01-23 13:10:00,
2013-01-23 08:15:00,13.0,4.8,29.38,WNW,292,0.0,2.0,69,0.00,,,0.00,Weather View 32 v70,2013-01-23 13:15:00,
2013-01-23 08:20:00,13.0,4.8,29.38,WNW,292,1.0,2.0,69,0.00,,,0.00,Weather View 32 v70,2013-01-23 13:20:00,
2013-01-23 08:25:00,13.0,3.8,29.38,WSW,247,3.0,5.0,66,0.00,,,0.00,Weather View 32 v70,2013-01-23 13:25:00,
2013-01-23 08:30:00,14.0,4.1,29.38,NW,315,0.0,6.0,64,0.00,,,0.00,Weather View 32 v70,2013-01-23 13:30:00,
2013-01-23 08:35:00,14.0,4.1,29.38,NNW,337,2.0,7.0,64,0.00,,,0.00,Weather View 32 v70,2013-01-23 13:35:00,
2013-01-23 08:40:00,14.0,4.1,29.39,NW,315,2.0,9.0,64,0.00,,,0.00,Weather View 32 v70,2013-01-23 13:40:00,
2013-01-23 08:45:00,14.0,3.0,29.39,NNW,337,2.0,9.0,61,0.00,,,0.00,Weather View 32 v70,2013-01-23 13:45:00,
2013-01-23 08:50:00,15.0,5.0,29.39,WNW,292,0.0,9.0,64,0.00,,,0.00,Weather View 32 v70,2013-01-23 13:50:00,
2013-01-23 08:55:00,15.0,2.5,29.39,WNW,292,0.0,9.0,57,0.00,,,0.00,Weather View 32 v70,2013-01-23 13:55:00,
2013-01-23 09:00:00,15.0,1.7,29.39,West,270,4.0,10.0,55,0.00,,,0.00,Weather View 32 v70,2013-01-23 14:00:00,
2013-01-23 09:05:00,15.0,1.0,29.39,NW,315,6.0,10.0,53,0.00,,,0.00,Weather View 32 v70,2013-01-23 14:05:00,
2013-01-23 09:10:00,16.0,2.3,29.39,WNW,292,2.0,10.0,54,0.00,,,0.00,Weather View 32 v70,2013-01-23 14:10:00,
2013-01-23 09:15:00,16.0,2.3,29.40,NW,315,5.0,10.0,54,0.00,,,0.00,Weather View 32 v70,2013-01-23 14:15:00,
2013-01-23 09:20:00,16.0,1.9,29.40,West,270,0.0,10.0,53,0.00,,,0.00,Weather View 32 v70,2013-01-23 14:20:00,
2013-01-23 09:25:00,17.0,2.4,29.39,SW,225,0.0,10.0,52,0.00,,,0.00,Weather View 32 v70,2013-01-23 14:25:00,
2013-01-23 09:30:00,17.0,1.1,29.39,West,270,0.0,10.0,49,0.00,,,0.00,Weather View 32 v70,2013-01-23 14:30:00,
2013-01-23 09:35:00,17.0,0.2,29.39,WNW,292,10.0,10.0,47,0.00,,,0.00,Weather View 32 v70,2013-01-23 14:35:00,
2013-01-23 09:40:00,18.0,1.2,29.39,NW,315,1.0,10.0,47,0.00,,,0.00,Weather View 32 v70,2013-01-23 14:40:00,
2013-01-23 09:45:00,18.0,0.7,29.39,NW,315,6.0,10.0,46,0.00,,,0.00,Weather View 32 v70,2013-01-23 14:45:00,
2013-01-23 09:50:00,18.0,0.7,29.39,NNW,337,10.0,10.0,46,0.00,,,0.00,Weather View 32 v70,2013-01-23 14:50:00,
2013-01-23 09:55:00,18.0,1.2,29.40,West,270,1.0,13.0,47,0.00,,,0.00,Weather View 32 v70,2013-01-23 14:55:00,
2013-01-23 10:00:00,18.0,0.7,29.40,WNW,292,6.0,13.0,46,0.00,,,0.00,Weather View 32 v70,2013-01-23 15:00:00,
2013-01-23 10:05:00,18.0,0.2,29.39,NNW,337,0.0,13.0,45,0.00,,,0.00,Weather View 32 v70,2013-01-23 15:05:00,
2013-01-23 10:10:00,19.0,1.6,29.40,NNW,337,4.0,13.0,46,0.00,,,0.00,Weather View 32 v70,2013-01-23 15:10:00,
2013-01-23 10:15:00,20.0,1.1,29.40,NNW,337,10.0,13.0,43,0.00,,,0.00,Weather View 32 v70,2013-01-23 15:15:00,
2013-01-23 10:20:00,20.0,1.1,29.40,West,270,1.0,13.0,43,0.00,,,0.00,Weather View 32 v70,2013-01-23 15:20:00,
2013-01-23 10:25:00,20.0,0.6,29.40,NNW,337,0.0,13.0,42,0.00,,,0.00,Weather View 32 v70,2013-01-23 15:25:00,
2013-01-23 10:30:00,20.0,-0.4,29.40,West,270,0.0,13.0,40,0.00,,,0.00,Weather View 32 v70,2013-01-23 15:30:00,
2013-01-23 10:35:00,21.0,0.5,29.40,West,270,4.0,13.0,40,0.00,,,0.00,Weather View 32 v70,2013-01-23 15:35:00,
2013-01-23 10:40:00,21.0,-0.1,29.39,NW,315,4.0,13.0,39,0.00,,,0.00,Weather View 32 v70,2013-01-23 15:40:00,
2013-01-23 10:45:00,21.0,-0.1,29.39,NNW,337,0.0,13.0,39,0.00,,,0.00,Weather View 32 v70,2013-01-23 15:45:00,
2013-01-23 10:50:00,21.0,-1.2,29.39,WNW,292,6.0,13.0,37,0.00,,,0.00,Weather View 32 v70,2013-01-23 15:50:00,
2013-01-23 10:55:00,21.0,-1.2,29.39,WNW,292,0.0,13.0,37,0.00,,,0.00,Weather View 32 v70,2013-01-23 15:55:00,
2013-01-23 11:00:00,21.0,-2.4,29.38,NW,315,6.0,13.0,35,0.00,,,0.00,Weather View 32 v70,2013-01-23 16:00:00,
2013-01-23 11:05:00,21.0,-2.4,29.38,WNW,292,6.0,13.0,35,0.00,,,0.00,Weather View 32 v70,2013-01-23 16:05:00,
2013-01-23 11:10:00,21.0,-1.2,29.38,West,270,6.0,13.0,37,0.00,,,0.00,Weather View 32 v70,2013-01-23 16:10:00,
2013-01-23 11:15:00,22.0,-1.5,29.37,West,270,4.0,13.0,35,0.00,,,0.00,Weather View 32 v70,2013-01-23 16:15:00,
2013-01-23 11:20:00,22.0,-1.5,29.37,WNW,292,8.0,13.0,35,0.00,,,0.00,Weather View 32 v70,2013-01-23 16:20:00,
2013-01-23 11:25:00,22.0,-1.5,29.37,WNW,292,6.0,13.0,35,0.00,,,0.00,Weather View 32 v70,2013-01-23 16:25:00,
2013-01-23 11:30:00,21.0,-2.4,29.37,WNW,292,5.0,13.0,35,0.00,,,0.00,Weather View 32 v70,2013-01-23 16:30:00,
2013-01-23 11:35:00,22.0,-0.3,29.36,WNW,292,4.0,13.0,37,0.00,,,0.00,Weather View 32 v70,2013-01-23 16:35:00,
2013-01-23 11:40:00,22.0,-2.1,29.35,WSW,247,6.0,14.0,34,0.00,,,0.00,Weather View 32 v70,2013-01-23 16:40:00,
2013-01-23 11:45:00,22.0,-1.5,29.35,WNW,292,5.0,14.0,35,0.00,,,0.00,Weather View 32 v70,2013-01-23 16:45:00,
2013-01-23 11:50:00,22.0,-2.1,29.35,NW,315,3.0,14.0,34,0.00,,,0.00,Weather View 32 v70,2013-01-23 16:50:00,
2013-01-23 11:55:00,23.0,-1.8,29.34,NW,315,6.0,14.0,33,0.00,,,0.00,Weather View 32 v70,2013-01-23 16:55:00,
2013-01-23 12:00:00,23.0,-1.2,29.34,NNW,337,0.0,14.0,34,0.00,,,0.00,Weather View 32 v70,2013-01-23 17:00:00,
2013-01-23 12:05:00,24.0,-0.3,29.33,NW,315,6.0,14.0,34,0.00,,,0.00,Weather View 32 v70,2013-01-23 17:05:00,
2013-01-23 12:10:00,23.0,-1.8,29.33,WSW,247,2.0,14.0,33,0.00,,,0.00,Weather View 32 v70,2013-01-23 17:10:00,
2013-01-23 12:15:00,24.0,-0.9,29.33,WNW,292,0.0,14.0,33,0.00,,,0.00,Weather View 32 v70,2013-01-23 17:15:00,
2013-01-23 12:20:00,24.0,-0.9,29.32,NW,315,7.0,14.0,33,0.00,,,0.00,Weather View 32 v70,2013-01-23 17:20:00,
2013-01-23 12:25:00,24.0,-0.9,29.32,WNW,292,10.0,14.0,33,0.00,,,0.00,Weather View 32 v70,2013-01-23 17:25:00,
2013-01-23 12:30:00,24.0,-1.6,29.32,West,270,2.0,14.0,32,0.00,,,0.00,Weather View 32 v70,2013-01-23 17:30:00,
2013-01-23 12:35:00,24.0,-1.6,29.32,North,360,0.0,14.0,32,0.00,,,0.00,Weather View 32 v70,2013-01-23 17:35:00,
2013-01-23 12:40:00,25.0,-0.7,29.32,WSW,247,1.0,12.0,32,0.00,,,0.00,Weather View 32 v70,2013-01-23 17:40:00,
2013-01-23 12:45:00,26.0,0.2,29.32,WNW,292,9.0,12.0,32,0.00,,,0.00,Weather View 32 v70,2013-01-23 17:45:00,
2013-01-23 12:50:00,24.0,-3.7,29.32,WSW,247,3.0,12.0,29,0.00,,,0.00,Weather View 32 v70,2013-01-23 17:50:00,
2013-01-23 12:55:00,23.0,-3.1,29.32,NW,315,3.0,12.0,31,0.00,,,0.00,Weather View 32 v70,2013-01-23 17:55:00,
2013-01-23 13:00:00,23.0,-1.8,29.31,West,270,4.0,12.0,33,0.00,,,0.00,Weather View 32 v70,2013-01-23 18:00:00,
2013-01-23 13:05:00,24.0,-1.6,29.31,NNW,337,10.0,12.0,32,0.00,,,0.00,Weather View 32 v70,2013-01-23 18:05:00,
2013-01-23 13:10:00,23.0,-3.1,29.31,NW,315,5.0,13.0,31,0.00,,,0.00,Weather View 32 v70,2013-01-23 18:10:00,
2013-01-23 13:15:00,23.0,-2.5,29.31,WNW,292,3.0,13.0,32,0.00,,,0.00,Weather View 32 v70,2013-01-23 18:15:00,
2013-01-23 13:20:00,23.0,-2.5,29.31,WNW,292,2.0,13.0,32,0.00,,,0.00,Weather View 32 v70,2013-01-23 18:20:00,
2013-01-23 13:25:00,23.0,-2.5,29.30,WNW,292,1.0,13.0,32,0.00,,,0.00,Weather View 32 v70,2013-01-23 18:25:00,
2013-01-23 13:30:00,24.0,-1.6,29.31,West,270,3.0,13.0,32,0.00,,,0.00,Weather View 32 v70,2013-01-23 18:30:00,
2013-01-23 13:35:00,24.0,-3.0,29.30,WNW,292,0.0,13.0,30,0.00,,,0.00,Weather View 32 v70,2013-01-23 18:35:00,
2013-01-23 13:40:00,24.0,-3.0,29.30,West,270,0.0,13.0,30,0.00,,,0.00,Weather View 32 v70,2013-01-23 18:40:00,
2013-01-23 13:45:00,24.0,-3.0,29.30,WNW,292,3.0,13.0,30,0.00,,,0.00,Weather View 32 v70,2013-01-23 18:45:00,
2013-01-23 13:50:00,23.0,-3.8,29.30,WNW,292,0.0,13.0,30,0.00,,,0.00,Weather View 32 v70,2013-01-23 18:50:00,
2013-01-23 13:55:00,23.0,-3.8,29.30,WSW,247,5.0,15.0,30,0.00,,,0.00,Weather View 32 v70,2013-01-23 18:55:00,
2013-01-23 14:00:00,23.0,-3.1,29.30,NNW,337,2.0,15.0,31,0.00,,,0.00,Weather View 32 v70,2013-01-23 19:00:00,
2013-01-23 14:05:00,23.0,-3.1,29.29,WNW,292,2.0,15.0,31,0.00,,,0.00,Weather View 32 v70,2013-01-23 19:05:00,
2013-01-23 14:10:00,23.0,-3.1,29.30,NNW,337,0.0,15.0,31,0.00,,,0.00,Weather View 32 v70,2013-01-23 19:10:00,
2013-01-23 14:15:00,23.0,-3.8,29.29,WNW,292,3.0,15.0,30,0.00,,,0.00,Weather View 32 v70,2013-01-23 19:15:00,
2013-01-23 14:20:00,23.0,-3.1,29.29,NW,315,3.0,15.0,31,0.00,,,0.00,Weather View 32 v70,2013-01-23 19:20:00,
2013-01-23 14:25:00,23.0,-2.5,29.30,WSW,247,2.0,15.0,32,0.00,,,0.00,Weather View 32 v70,2013-01-23 19:25:00,
2013-01-23 14:30:00,24.0,-2.3,29.29,WNW,292,2.0,15.0,31,0.00,,,0.00,Weather View 32 v70,2013-01-23 19:30:00,
2013-01-23 14:35:00,24.0,-2.3,29.29,West,270,2.0,15.0,31,0.00,,,0.00,Weather View 32 v70,2013-01-23 19:35:00,
2013-01-23 14:40:00,24.0,-3.0,29.29,NNW,337,7.0,15.0,30,0.00,,,0.00,Weather View 32 v70,2013-01-23 19:40:00,
2013-01-23 14:45:00,24.0,-3.0,29.29,NNW,337,0.0,15.0,30,0.00,,,0.00,Weather View 32 v70,2013-01-23 19:45:00,
2013-01-23 14:50:00,24.0,-2.3,29.29,WNW,292,0.0,15.0,31,0.00,,,0.00,Weather View 32 v70,2013-01-23 19:50:00,
2013-01-23 14:55:00,25.0,-2.1,29.29,West,270,0.0,13.0,30,0.00,,,0.00,Weather View 32 v70,2013-01-23 19:55:00,
2013-01-23 15:00:00,25.0,-2.8,29.29,WSW,247,1.0,13.0,29,0.00,,,0.00,Weather View 32 v70,2013-01-23 20:00:00,
2013-01-23 15:05:00,24.0,-3.7,29.29,West,270,1.0,12.0,29,0.00,,,0.00,Weather View 32 v70,2013-01-23 20:05:00,
2013-01-23 15:10:00,24.0,-3.7,29.29,NW,315,2.0,12.0,29,0.00,,,0.00,Weather View 32 v70,2013-01-23 20:10:00,
2013-01-23 15:15:00,24.0,-3.7,29.29,West,270,0.0,12.0,29,0.00,,,0.00,Weather View 32 v70,2013-01-23 20:15:00,
2013-01-23 15:20:00,24.0,-3.0,29.29,WNW,292,2.0,12.0,30,0.00,,,0.00,Weather View 32 v70,2013-01-23 20:20:00,
2013-01-23 15:25:00,24.0,-3.0,29.29,NW,315,1.0,12.0,30,0.00,,,0.00,Weather View 32 v70,2013-01-23 20:25:00,
2013-01-23 15:30:00,23.0,-3.8,29.29,WSW,247,2.0,12.0,30,0.00,,,0.00,Weather View 32 v70,2013-01-23 20:30:00,
2013-01-23 15:35:00,24.0,-3.0,29.29,West,270,0.0,12.0,30,0.00,,,0.00,Weather View 32 v70,2013-01-23 20:35:00,
2013-01-23 15:40:00,24.0,-3.0,29.28,West,270,0.0,12.0,30,0.00,,,0.00,Weather View 32 v70,2013-01-23 20:40:00,
2013-01-23 15:45:00,24.0,-1.6,29.29,West,270,2.0,12.0,32,0.00,,,0.00,Weather View 32 v70,2013-01-23 20:45:00,
2013-01-23 15:50:00,24.0,-0.3,29.29,West,270,0.0,10.0,34,0.00,,,0.00,Weather View 32 v70,2013-01-23 20:50:00,
2013-01-23 15:55:00,25.0,-2.1,29.29,WNW,292,0.0,10.0,30,0.00,,,0.00,Weather View 32 v70,2013-01-23 20:55:00,
2013-01-23 16:00:00,25.0,-3.5,29.29,SW,225,1.0,10.0,28,0.00,,,0.00,Weather View 32 v70,2013-01-23 21:00:00,
2013-01-23 16:05:00,25.0,-4.3,29.29,West,270,0.0,10.0,27,0.00,,,0.00,Weather View 32 v70,2013-01-23 21:05:00,
2013-01-23 16:10:00,25.0,-4.3,29.28,WNW,292,4.0,10.0,27,0.00,,,0.00,Weather View 32 v70,2013-01-23 21:10:00,
2013-01-23 16:15:00,24.0,-4.4,29.28,WSW,247,1.0,10.0,28,0.00,,,0.00,Weather View 32 v70,2013-01-23 21:15:00,
2013-01-23 16:20:00,25.0,-1.4,29.28,WSW,247,0.0,9.0,31,0.00,,,0.00,Weather View 32 v70,2013-01-23 21:20:00,
2013-01-23 16:25:00,25.0,-2.1,29.28,West,270,0.0,9.0,30,0.00,,,0.00,Weather View 32 v70,2013-01-23 21:25:00,
2013-01-23 16:30:00,25.0,-2.8,29.29,WSW,247,1.0,9.0,29,0.00,,,0.00,Weather View 32 v70,2013-01-23 21:30:00,
2013-01-23 16:35:00,25.0,-2.1,29.29,WNW,292,0.0,9.0,30,0.00,,,0.00,Weather View 32 v70,2013-01-23 21:35:00,
2013-01-23 16:40:00,24.0,-3.7,29.29,West,270,2.0,9.0,29,0.00,,,0.00,Weather View 32 v70,2013-01-23 21:40:00,
2013-01-23 16:45:00,24.0,-3.7,29.29,WNW,292,2.0,9.0,29,0.00,,,0.00,Weather View 32 v70,2013-01-23 21:45:00,
2013-01-23 16:50:00,24.0,-3.7,29.28,WNW,292,0.0,9.0,29,0.00,,,0.00,Weather View 32 v70,2013-01-23 21:50:00,
2013-01-23 16:55:00,23.0,-3.8,29.28,NW,315,4.0,9.0,30,0.00,,,0.00,Weather View 32 v70,2013-01-23 21:55:00,
2013-01-23 17:00:00,23.0,-3.1,29.28,WNW,292,0.0,9.0,31,0.00,,,0.00,Weather View 32 v70,2013-01-23 22:00:00,
2013-01-23 17:05:00,23.0,-3.8,29.27,WNW,292,0.0,8.0,30,0.00,,,0.00,Weather View 32 v70,2013-01-23 22:05:00,
2013-01-23 17:10:00,23.0,-3.1,29.27,West,270,0.0,7.0,31,0.00,,,0.00,Weather View 32 v70,2013-01-23 22:10:00,
2013-01-23 17:15:00,23.0,-3.1,29.27,West,270,0.0,7.0,31,0.00,,,0.00,Weather View 32 v70,2013-01-23 22:15:00,
2013-01-23 17:20:00,23.0,-3.1,29.27,WSW,247,0.0,7.0,31,0.00,,,0.00,Weather View 32 v70,2013-01-23 22:20:00,
2013-01-23 17:25:00,23.0,-2.5,29.27,NW,315,0.0,7.0,32,0.00,,,0.00,Weather View 32 v70,2013-01-23 22:25:00,
2013-01-23 17:30:00,23.0,-2.5,29.27,NW,315,0.0,7.0,32,0.00,,,0.00,Weather View 32 v70,2013-01-23 22:30:00,
2013-01-23 17:35:00,23.0,-1.8,29.27,NW,315,0.0,7.0,33,0.00,,,0.00,Weather View 32 v70,2013-01-23 22:35:00,
2013-01-23 17:40:00,23.0,-1.8,29.27,NW,315,0.0,7.0,33,0.00,,,0.00,Weather View 32 v70,2013-01-23 22:40:00,
2013-01-23 17:45:00,23.0,-1.8,29.27,NNW,337,0.0,7.0,33,0.00,,,0.00,Weather View 32 v70,2013-01-23 22:45:00,
2013-01-23 17:50:00,23.0,-2.5,29.27,WNW,292,0.0,7.0,32,0.00,,,0.00,Weather View 32 v70,2013-01-23 22:50:00,
2013-01-23 17:55:00,23.0,-2.5,29.27,NW,315,1.0,7.0,32,0.00,,,0.00,Weather View 32 v70,2013-01-23 22:55:00,
2013-01-23 18:00:00,23.0,-2.5,29.27,NW,315,0.0,6.0,32,0.00,,,0.00,Weather View 32 v70,2013-01-23 23:00:00,
2013-01-23 18:05:00,23.0,-2.5,29.28,NW,315,0.0,6.0,32,0.00,,,0.00,Weather View 32 v70,2013-01-23 23:05:00,
2013-01-23 18:10:00,23.0,-2.5,29.27,NW,315,0.0,3.0,32,0.00,,,0.00,Weather View 32 v70,2013-01-23 23:10:00,
2013-01-23 18:15:00,23.0,-1.8,29.27,NW,315,0.0,3.0,33,0.00,,,0.00,Weather View 32 v70,2013-01-23 23:15:00,
2013-01-23 18:20:00,23.0,-1.8,29.27,NW,315,0.0,3.0,33,0.00,,,0.00,Weather View 32 v70,2013-01-23 23:20:00,
2013-01-23 18:25:00,23.0,-1.8,29.27,NE,45,0.0,3.0,33,0.00,,,0.00,Weather View 32 v70,2013-01-23 23:25:00,
2013-01-23 18:30:00,23.0,-1.8,29.27,NNW,337,0.0,3.0,33,0.00,,,0.00,Weather View 32 v70,2013-01-23 23:30:00,
2013-01-23 18:35:00,23.0,-1.2,29.27,NNW,337,0.0,3.0,34,0.00,,,0.00,Weather View 32 v70,2013-01-23 23:35:00,
2013-01-23 18:40:00,23.0,-1.8,29.27,NNW,337,0.0,4.0,33,0.00,,,0.00,Weather View 32 v70,2013-01-23 23:40:00,
2013-01-23 18:45:00,23.0,-1.2,29.27,North,360,1.0,4.0,34,0.00,,,0.00,Weather View 32 v70,2013-01-23 23:45:00,
2013-01-23 18:50:00,23.0,-1.8,29.27,North,360,0.0,5.0,33,0.00,,,0.00,Weather View 32 v70,2013-01-23 23:50:00,
2013-01-23 18:55:00,23.0,-1.2,29.26,North,360,1.0,5.0,34,0.00,,,0.00,Weather View 32 v70,2013-01-23 23:55:00,
2013-01-23 19:00:00,23.0,-1.2,29.26,North,360,0.0,5.0,34,0.00,,,0.00,Weather View 32 v70,2013-01-24 00:00:00,
2013-01-23 19:05:00,23.0,-1.2,29.26,North,360,3.0,5.0,34,0.00,,,0.00,Weather View 32 v70,2013-01-24 00:05:00,
2013-01-23 19:10:00,23.0,-1.2,29.26,NNW,337,0.0,7.0,34,0.00,,,0.00,Weather View 32 v70,2013-01-24 00:10:00,
2013-01-23 19:15:00,22.0,-1.5,29.26,North,360,0.0,7.0,35,0.00,,,0.00,Weather View 32 v70,2013-01-24 00:15:00,
2013-01-23 19:20:00,22.0,-1.5,29.26,North,360,0.0,7.0,35,0.00,,,0.00,Weather View 32 v70,2013-01-24 00:20:00,
2013-01-23 19:25:00,22.0,-1.5,29.26,NNE,22,0.0,7.0,35,0.00,,,0.00,Weather View 32 v70,2013-01-24 00:25:00,
2013-01-23 19:30:00,22.0,-1.5,29.26,North,360,0.0,7.0,35,0.00,,,0.00,Weather View 32 v70,2013-01-24 00:30:00,
2013-01-23 19:35:00,22.0,-1.5,29.26,NNW,337,0.0,7.0,35,0.00,,,0.00,Weather View 32 v70,2013-01-24 00:35:00,
2013-01-23 19:40:00,22.0,-0.9,29.26,NNW,337,0.0,7.0,36,0.00,,,0.00,Weather View 32 v70,2013-01-24 00:40:00,
2013-01-23 19:45:00,22.0,-0.9,29.25,NW,315,1.0,7.0,36,0.00,,,0.00,Weather View 32 v70,2013-01-24 00:45:00,
2013-01-23 19:50:00,22.0,-1.5,29.25,NNW,337,1.0,7.0,35,0.00,,,0.00,Weather View 32 v70,2013-01-24 00:50:00,
2013-01-23 19:55:00,22.0,-1.5,29.25,NNW,337,0.0,7.0,35,0.00,,,0.00,Weather View 32 v70,2013-01-24 00:55:00,
2013-01-23 20:00:00,22.0,-1.5,29.25,NNW,337,0.0,7.0,35,0.00,,,0.00,Weather View 32 v70,2013-01-24 01:00:00,
2013-01-23 20:05:00,22.0,-0.9,29.25,North,360,0.0,7.0,36,0.00,,,0.00,Weather View 32 v70,2013-01-24 01:05:00,
2013-01-23 20:10:00,22.0,-1.5,29.25,North,360,2.0,3.0,35,0.00,,,0.00,Weather View 32 v70,2013-01-24 01:10:00,
2013-01-23 20:15:00,22.0,-0.9,29.25,North,360,0.0,3.0,36,0.00,,,0.00,Weather View 32 v70,2013-01-24 01:15:00,
2013-01-23 20:20:00,22.0,-1.5,29.25,North,360,0.0,3.0,35,0.00,,,0.00,Weather View 32 v70,2013-01-24 01:20:00,
2013-01-23 20:25:00,22.0,-1.5,29.25,NNW,337,0.0,4.0,35,0.00,,,0.00,Weather View 32 v70,2013-01-24 01:25:00,
2013-01-23 20:30:00,22.0,-0.9,29.25,North,360,0.0,4.0,36,0.00,,,0.00,Weather View 32 v70,2013-01-24 01:30:00,
2013-01-23 20:35:00,22.0,-0.9,29.25,NNW,337,0.0,4.0,36,0.00,,,0.00,Weather View 32 v70,2013-01-24 01:35:00,
2013-01-23 20:40:00,22.0,-0.9,29.25,NNE,22,0.0,4.0,36,0.00,,,0.00,Weather View 32 v70,2013-01-24 01:40:00,
2013-01-23 20:45:00,22.0,-0.9,29.25,North,360,0.0,4.0,36,0.00,,,0.00,Weather View 32 v70,2013-01-24 01:45:00,
2013-01-23 20:50:00,22.0,-0.9,29.25,North,360,0.0,4.0,36,0.00,,,0.00,Weather View 32 v70,2013-01-24 01:50:00,
2013-01-23 20:55:00,22.0,-0.9,29.25,NW,315,0.0,4.0,36,0.00,,,0.00,Weather View 32 v70,2013-01-24 01:55:00,
2013-01-23 21:00:00,22.0,-0.9,29.25,NW,315,0.0,4.0,36,0.00,,,0.00,Weather View 32 v70,2013-01-24 02:00:00,
2013-01-23 21:05:00,22.0,-0.9,29.25,NW,315,0.0,4.0,36,0.00,,,0.00,Weather View 32 v70,2013-01-24 02:05:00,
2013-01-23 21:10:00,22.0,-0.9,29.25,NW,315,0.0,4.0,36,0.00,,,0.00,Weather View 32 v70,2013-01-24 02:10:00,
2013-01-23 21:15:00,22.0,-0.9,29.25,NW,315,0.0,4.0,36,0.00,,,0.00,Weather View 32 v70,2013-01-24 02:15:00,
2013-01-23 21:20:00,22.0,-0.9,29.25,North,360,0.0,4.0,36,0.00,,,0.00,Weather View 32 v70,2013-01-24 02:20:00,
2013-01-23 21:25:00,22.0,-0.9,29.25,North,360,0.0,3.0,36,0.00,,,0.00,Weather View 32 v70,2013-01-24 02:25:00,
2013-01-23 21:30:00,22.0,-0.9,29.25,NNW,337,0.0,3.0,36,0.00,,,0.00,Weather View 32 v70,2013-01-24 02:30:00,
2013-01-23 21:35:00,22.0,-0.9,29.25,NNW,337,0.0,3.0,36,0.00,,,0.00,Weather View 32 v70,2013-01-24 02:35:00,
2013-01-23 21:40:00,22.0,-0.9,29.25,NNW,337,0.0,3.0,36,0.00,,,0.00,Weather View 32 v70,2013-01-24 02:40:00,
2013-01-23 21:45:00,22.0,-0.3,29.25,NNW,337,0.0,3.0,37,0.00,,,0.00,Weather View 32 v70,2013-01-24 02:45:00,
2013-01-23 21:50:00,22.0,-0.9,29.25,NNW,337,0.0,3.0,36,0.00,,,0.00,Weather View 32 v70,2013-01-24 02:50:00,
2013-01-23 21:55:00,22.0,-0.9,29.25,NNW,337,0.0,3.0,36,0.00,,,0.00,Weather View 32 v70,2013-01-24 02:55:00,
2013-01-23 22:00:00,22.0,-0.9,29.25,NNW,337,0.0,3.0,36,0.00,,,0.00,Weather View 32 v70,2013-01-24 03:00:00,
2013-01-23 22:05:00,22.0,-0.3,29.25,NNW,337,0.0,3.0,37,0.00,,,0.00,Weather View 32 v70,2013-01-24 03:05:00,
2013-01-23 22:10:00,22.0,-0.3,29.25,NNW,337,0.0,3.0,37,0.00,,,0.00,Weather View 32 v70,2013-01-24 03:10:00,
2013-01-23 22:15:00,22.0,-0.3,29.25,NNW,337,0.0,3.0,37,0.00,,,0.00,Weather View 32 v70,2013-01-24 03:15:00,
2013-01-23 22:20:00,22.0,-0.3,29.25,NNW,337,0.0,3.0,37,0.00,,,0.00,Weather View 32 v70,2013-01-24 03:20:00,
2013-01-23 22:25:00,22.0,-0.3,29.25,NNW,337,0.0,1.0,37,0.00,,,0.00,Weather View 32 v70,2013-01-24 03:25:00,
2013-01-23 22:30:00,22.0,-0.3,29.25,NNW,337,0.0,0.0,37,0.00,,,0.00,Weather View 32 v70,2013-01-24 03:30:00,
2013-01-23 22:35:00,22.0,0.3,29.25,NNW,337,0.0,0.0,38,0.00,,,0.00,Weather View 32 v70,2013-01-24 03:35:00,
2013-01-23 22:40:00,22.0,1.9,29.25,SSW,202,0.0,2.0,41,0.00,,,0.00,Weather View 32 v70,2013-01-24 03:40:00,
2013-01-23 22:45:00,22.0,1.9,29.24,East,90,0.0,3.0,41,0.00,,,0.00,Weather View 32 v70,2013-01-24 03:45:00,
2013-01-23 22:50:00,22.0,2.9,29.24,ESE,112,0.0,3.0,43,0.00,,,0.00,Weather View 32 v70,2013-01-24 03:50:00,
2013-01-23 22:55:00,22.0,2.4,29.24,WSW,247,0.0,3.0,42,0.00,,,0.00,Weather View 32 v70,2013-01-24 03:55:00,
2013-01-23 23:00:00,22.0,2.4,29.24,North,360,0.0,3.0,42,0.00,,,0.00,Weather View 32 v70,2013-01-24 04:00:00,
2013-01-23 23:05:00,22.0,2.9,29.24,NNW,337,0.0,3.0,43,0.00,,,0.00,Weather View 32 v70,2013-01-24 04:05:00,
2013-01-23 23:10:00,22.0,2.4,29.23,NNW,337,0.0,3.0,42,0.00,,,0.00,Weather View 32 v70,2013-01-24 04:10:00,
2013-01-23 23:15:00,22.0,2.9,29.24,North,360,3.0,3.0,43,0.00,,,0.00,Weather View 32 v70,2013-01-24 04:15:00,
2013-01-23 23:20:00,22.0,3.4,29.24,ENE,67,2.0,4.0,44,0.00,,,0.00,Weather View 32 v70,2013-01-24 04:20:00,
2013-01-23 23:25:00,22.0,5.8,29.23,NNE,22,0.0,4.0,49,0.00,,,0.00,Weather View 32 v70,2013-01-24 04:25:00,
2013-01-23 23:30:00,22.0,5.3,29.23,North,360,0.0,4.0,48,0.00,,,0.00,Weather View 32 v70,2013-01-24 04:30:00,
2013-01-23 23:35:00,21.0,3.9,29.24,North,360,0.0,4.0,47,0.00,,,0.00,Weather View 32 v70,2013-01-24 04:35:00,
2013-01-23 23:40:00,21.0,3.9,29.24,North,360,0.0,4.0,47,0.00,,,0.00,Weather View 32 v70,2013-01-24 04:40:00,
2013-01-23 23:45:00,21.0,4.4,29.24,North,360,0.0,4.0,48,0.00,,,0.00,Weather View 32 v70,2013-01-24 04:45:00,
2013-01-23 23:50:00,21.0,5.7,29.24,East,90,0.0,4.0,51,0.00,,,0.00,Weather View 32 v70,2013-01-24 04:50:00,
2013-01-23 23:55:00,21.0,6.1,29.24,East,90,0.0,4.0,52,0.00,,,0.00,Weather View 32 v70,2013-01-24 04:55:00,